STARLINK-33635 (63065 NORAD) Tracking and Keplerian Element Data

This shows tracking and keplerian element data for the satellite.

Feedback or suggestion? Click here.




ElementValue
Catalog63065
NameSTARLINK-33635
Epoch Orbit4754
Epoch Day354.00698231
Epoch Year2025
RAAN237.061
Inclination43.0021
Eccentricity0.0001469
Argument of Perigee255.6039
Mean Anonmoly104.4649
Mean Motion15.27587731
Decay Rate0.00011727
L11 63065U 25035P 25354.00698231 .00011727 00000+0 43490-3 0 9993
L22 63065 43.0021 237.0610 0001469 255.6039 104.4649 15.27587731 47545



Live tracking and technical data element details for STARLINK-33635 (NORAD 63065). STARLINK-33635 can be tracked NOW for your location showing map with azimuth and elevation plus other details from your city location.







IsCatalogInMostPopularTable: catalog: 63065, numindb: 2
Update: records affected: 1



GetName: 63065 STARLINK-33635

Hit Count: updated at: Sun, 08 Feb 2026 08:12:15 GMT